EN

Hourly Weather Laguny

Today, 4 August, Wednesday

Time Temperature Precipitation Wind Pressure Humidity
00:00 +13°C° 0 mm 2 mps 747 mmHg 93%
01:00 +12°C° 0 mm 2 mps 747 mmHg 94%
02:00 +12°C° 0 mm 2 mps 748 mmHg 95%
03:00 +12°C° 0 mm 2 mps 748 mmHg 95%
04:00 +12°C° 0 mm 2 mps 748 mmHg 95%
05:00 +10°C° 0 mm 2 mps 748 mmHg 95%
06:00 +13°C° 0 mm 2 mps 748 mmHg 87%
07:00 +15°C° 0 mm 2 mps 749 mmHg 79%
08:00 +16°C° 0 mm 2 mps 749 mmHg 71%
09:00 +17°C° 0 mm 2 mps 749 mmHg 68%
10:00 +17°C° 0 mm 2 mps 749 mmHg 65%
11:00 +18°C° 0 mm 2 mps 750 mmHg 62%
12:00 +19°C° 0 mm 2 mps 749 mmHg 59%
13:00 +19°C° 0 mm 2 mps 749 mmHg 56%
14:00 +20°C° 0 mm 2 mps 749 mmHg 54%
15:00 +20°C° 0 mm 2 mps 749 mmHg 52%
16:00 +21°C° 0 mm 2 mps 749 mmHg 51%
17:00 +21°C° 0 mm 2 mps 749 mmHg 50%
18:00 +21°C° 0 mm 1 mps 749 mmHg 57%
19:00 +19°C° 0 mm 1 mps 749 mmHg 64%
20:00 +16°C° 0 mm 1 mps 749 mmHg 72%
21:00 +16°C° 0.1 mm 1 mps 749 mmHg 76%
22:00 +15°C° 0.1 mm 1 mps 749 mmHg 80%
23:00 +15°C° 0.1 mm 1 mps 749 mmHg 84%

Tomorrow, 5 August, Thursday

Time Temperature Precipitation Wind Pressure Humidity
00:00 +15°C° 1.4 mm 1 mps 749 mmHg 89%
01:00 +15°C° 1.4 mm 1 mps 749 mmHg 93%
02:00 +14°C° 1.4 mm 1 mps 749 mmHg 98%
03:00 +14°C° 1.7 mm 2 mps 749 mmHg 98%
04:00 +14°C° 1.7 mm 2 mps 749 mmHg 98%
05:00 +14°C° 1.7 mm 2 mps 748 mmHg 98%
06:00 +14°C° 0.9 mm 2 mps 748 mmHg 97%
07:00 +13°C° 0.9 mm 3 mps 748 mmHg 97%
08:00 +13°C° 0.9 mm 3 mps 748 mmHg 96%
09:00 +13°C° 0.2 mm 3 mps 748 mmHg 95%
10:00 +15°C° 0.2 mm 2 mps 748 mmHg 94%
11:00 +15°C° 0.2 mm 2 mps 748 mmHg 94%
12:00 +16°C° 0 mm 3 mps 748 mmHg 90%
13:00 +16°C° 0 mm 3 mps 748 mmHg 86%
14:00 +17°C° 0 mm 3 mps 748 mmHg 82%
15:00 +17°C° 0 mm 3 mps 748 mmHg 78%
16:00 +18°C° 0 mm 3 mps 747 mmHg 74%
17:00 +18°C° 0 mm 4 mps 747 mmHg 70%
18:00 +17°C° 0 mm 3 mps 747 mmHg 77%
19:00 +14°C° 0 mm 3 mps 747 mmHg 84%
20:00 +14°C° 0 mm 2 mps 747 mmHg 91%
21:00 +14°C° 0 mm 2 mps 747 mmHg 93%
22:00 +13°C° 0 mm 2 mps 747 mmHg 94%
23:00 +13°C° 0 mm 2 mps 747 mmHg 96%

Day after tomorrow, 6 August, Friday

Time Temperature Precipitation Wind Pressure Humidity
00:00 +12°C° 0 mm 3 mps 746 mmHg 96%
01:00 +12°C° 0 mm 3 mps 746 mmHg 96%
02:00 +12°C° 0 mm 3 mps 746 mmHg 96%
03:00 +12°C° 0 mm 3 mps 746 mmHg 95%
04:00 +13°C° 0 mm 4 mps 745 mmHg 93%
05:00 +13°C° 0 mm 4 mps 745 mmHg 92%
06:00 +13°C° 0 mm 4 mps 745 mmHg 91%
07:00 +14°C° 0 mm 5 mps 744 mmHg 89%
08:00 +14°C° 0 mm 5 mps 744 mmHg 88%
09:00 +15°C° 0.4 mm 5 mps 744 mmHg 88%
10:00 +15°C° 0.4 mm 5 mps 744 mmHg 88%
11:00 +15°C° 0.4 mm 5 mps 744 mmHg 88%
12:00 +15°C° 1 mm 6 mps 744 mmHg 90%
13:00 +15°C° 1 mm 6 mps 743 mmHg 92%
14:00 +15°C° 1 mm 6 mps 743 mmHg 94%
15:00 +15°C° 2.7 mm 6 mps 743 mmHg 95%
16:00 +15°C° 2.7 mm 7 mps 743 mmHg 95%
17:00 +15°C° 2.7 mm 7 mps 742 mmHg 96%
18:00 +15°C° 3.4 mm 7 mps 742 mmHg 96%
19:00 +14°C° 3.4 mm 7 mps 742 mmHg 96%
20:00 +14°C° 3.4 mm 6 mps 742 mmHg 96%
21:00 +14°C° 0.5 mm 6 mps 742 mmHg 97%
22:00 +15°C° 0.5 mm 6 mps 742 mmHg 97%
23:00 +15°C° 0.5 mm 5 mps 742 mmHg 98%

7 August, Saturday

Time Temperature Precipitation Wind Pressure Humidity
00:00 +15°C° 0.1 mm 5 mps 741 mmHg 98%
01:00 +15°C° 0.1 mm 4 mps 741 mmHg 98%
02:00 +15°C° 0.1 mm 4 mps 741 mmHg 98%
03:00 +15°C° 0 mm 4 mps 741 mmHg 98%
04:00 +16°C° 0 mm 3 mps 741 mmHg 98%
05:00 +16°C° 0 mm 3 mps 741 mmHg 98%
06:00 +17°C° 0 mm 3 mps 742 mmHg 97%
07:00 +17°C° 0 mm 3 mps 742 mmHg 95%
08:00 +17°C° 0 mm 2 mps 742 mmHg 94%
09:00 +18°C° 0.1 mm 3 mps 742 mmHg 89%
10:00 +19°C° 0.1 mm 3 mps 742 mmHg 84%
11:00 +20°C° 0.1 mm 3 mps 743 mmHg 79%
12:00 +20°C° 0 mm 3 mps 743 mmHg 77%
13:00 +20°C° 0 mm 3 mps 743 mmHg 76%
14:00 +20°C° 0 mm 3 mps 743 mmHg 74%
15:00 +20°C° 0 mm 3 mps 743 mmHg 74%
16:00 +20°C° 0 mm 3 mps 743 mmHg 75%
17:00 +20°C° 0 mm 3 mps 744 mmHg 76%
18:00 +19°C° 0 mm 3 mps 744 mmHg 79%
19:00 +18°C° 0 mm 3 mps 744 mmHg 83%
20:00 +17°C° 0 mm 2 mps 744 mmHg 86%
21:00 +16°C° 0 mm 2 mps 745 mmHg 87%
22:00 +15°C° 0 mm 2 mps 745 mmHg 88%
23:00 +15°C° 0 mm 2 mps 745 mmHg 89%

8 August, Sunday

Time Temperature Precipitation Wind Pressure Humidity
00:00 +14°C° 0 mm 2 mps 745 mmHg 90%
01:00 +14°C° 0 mm 2 mps 745 mmHg 91%
02:00 +14°C° 0 mm 2 mps 745 mmHg 92%
03:00 +13°C° 0 mm 2 mps 745 mmHg 93%
04:00 +13°C° 0 mm 2 mps 745 mmHg 94%
05:00 +12°C° 0 mm 2 mps 746 mmHg 95%
06:00 +14°C° 0 mm 2 mps 746 mmHg 89%
07:00 +15°C° 0 mm 2 mps 746 mmHg 83%
08:00 +17°C° 0 mm 2 mps 746 mmHg 77%
09:00 +18°C° 0 mm 3 mps 746 mmHg 71%
10:00 +19°C° 0 mm 3 mps 746 mmHg 66%
11:00 +21°C° 0 mm 3 mps 746 mmHg 60%
12:00 +21°C° 0 mm 3 mps 747 mmHg 61%
13:00 +21°C° 0 mm 3 mps 747 mmHg 62%
14:00 +21°C° 0 mm 3 mps 747 mmHg 63%
15:00 +21°C° 0 mm 2 mps 747 mmHg 65%
16:00 +20°C° 0 mm 2 mps 748 mmHg 68%
17:00 +20°C° 0 mm 2 mps 748 mmHg 70%
18:00 +20°C° 0 mm 1 mps 748 mmHg 75%
19:00 +19°C° 0 mm 1 mps 748 mmHg 79%
20:00 +18°C° 0 mm 1 mps 748 mmHg 84%
21:00 +18°C° 0 mm 1 mps 749 mmHg 86%
22:00 +16°C° 0 mm 1 mps 749 mmHg 88%
23:00 +15°C° 0 mm 1 mps 749 mmHg 90%

9 August, Monday

Time Temperature Precipitation Wind Pressure Humidity
00:00 +15°C° 0 mm 1 mps 749 mmHg 91%
01:00 +15°C° 0 mm 1 mps 749 mmHg 92%
02:00 +14°C° 0 mm 1 mps 750 mmHg 93%
03:00 +14°C° 0 mm 1 mps 750 mmHg 92%
04:00 +14°C° 0 mm 1 mps 750 mmHg 92%
05:00 +14°C° 0 mm 1 mps 750 mmHg 91%
06:00 +16°C° 0 mm 1 mps 750 mmHg 82%
07:00 +20°C° 0 mm 1 mps 750 mmHg 74%
08:00 +22°C° 0 mm 1 mps 750 mmHg 65%
09:00 +23°C° 0 mm 1 mps 750 mmHg 60%
10:00 +25°C° 0 mm 1 mps 750 mmHg 55%
11:00 +27°C° 0 mm 1 mps 750 mmHg 50%
12:00 +27°C° 0 mm 1 mps 750 mmHg 49%
13:00 +27°C° 0 mm 1 mps 750 mmHg 48%
14:00 +28°C° 0 mm 1 mps 750 mmHg 47%
15:00 +27°C° 0 mm 1 mps 750 mmHg 50%
16:00 +27°C° 0 mm 1 mps 750 mmHg 53%
17:00 +27°C° 0 mm 1 mps 750 mmHg 56%
18:00 +25°C° 0 mm 1 mps 749 mmHg 62%
19:00 +24°C° 0 mm 1 mps 749 mmHg 67%
20:00 +22°C° 0 mm 1 mps 749 mmHg 73%
21:00 +21°C° 0.9 mm 1 mps 749 mmHg 81%
22:00 +20°C° 0.9 mm 1 mps 749 mmHg 89%
23:00 +19°C° 0.9 mm 1 mps 749 mmHg 97%
Show more